{"data":{"norad_id":60446,"intl_designator":"2024-144X","name":"STARLINK-32247","alt_names":[],"object_type":"PAYLOAD","status":"ACTIVE","operator":null,"country":"US","launch_date":"2024-08-12","launch_site_code":"AFETR","launch_vehicle":null,"mission":null,"orbit_class":"UNKNOWN","rcs_meters":null,"size_class":null,"mass_kg":null,"dimensions":null,"purposes":["comms"],"wikipedia_slug":null,"has_3d_model":false,"image_url":null,"decayed_at":null,"tle_current":{"epoch":"2026-09-21T15:50:07.814688Z","epoch_age_seconds":88362,"freshness":"FRESH","line1":"1 60446U 24144X   26264.65981267  .00047824  00000+0  13668-2 0  9999","line2":"2 60446  53.1616  13.9185 0002200  25.8980 334.2133 15.35546312119530","mean_motion":15.35546312,"eccentricity":0.00022,"inclination_deg":53.1616,"raan_deg":13.9185,"arg_perigee_deg":25.898,"mean_anomaly_deg":334.2133,"bstar":0.0013668,"rev_number":11953,"period_min":93.777699099446,"perigee_km":457.79404332079,"apogee_km":460.80251484359,"semimajor_km":6837.4352790822,"source":"CELESTRAK","updated_at":"2026-09-22T09:00:49.237888Z"}}}